| time (UTC) | temp F | wind direction | speed MPH | gust MPH | rain 1hr in | rain 24hr in | rain mn in | humidity % | barometer mb |
| 20260904014525 | 64 | 95 | 6.0 | 12.0 | 0.00 | 1.31 | 1.31 | 81 | 1008.9 |
| 20260904013031 | 63 | 144 | 3.0 | 9.0 | 0.00 | 1.31 | 1.31 | 81 | 1008.4 |
| 20260904011536 | 63 | 125 | 3.0 | 10.0 | 0.00 | 1.31 | 1.31 | 81 | 1009.1 |
| 20260904010039 | 63 | 115 | 4.0 | 10.0 | 0.00 | 1.31 | 1.31 | 81 | 1009.4 |
| 20260904004526 | 64 | 103 | 5.0 | 11.0 | 0.00 | 1.31 | 1.31 | 81 | 1009.5 |
| 20260904003029 | 64 | 119 | 3.0 | 8.0 | 0.00 | 1.31 | 1.31 | 81 | 1009.4 |
| 20260904001527 | 64 | 111 | 1.0 | 8.0 | 0.00 | 1.31 | 1.31 | 82 | 1009.4 |
| 20260904000028 | 64 | 130 | 4.0 | 12.0 | 0.00 | 1.31 | 1.31 | 82 | 1009.6 |
| 20260903234533 | 64 | 76 | 2.0 | 6.0 | 0.00 | 1.31 | 1.31 | 81 | 1010.3 |
| 20260903233004 | 63 | 77 | 2.0 | 7.0 | 0.01 | 1.31 | 1.31 | 82 | 1010.4 |
| 20260903231512 | 63 | 123 | 3.0 | 9.0 | 0.04 | 1.31 | 1.31 | 82 | 1010.0 |
| 20260903230022 | 63 | 68 | 3.0 | 8.0 | 0.04 | 1.31 | 1.31 | 81 | 1009.9 |
| 20260903224527 | 63 | 306 | 2.0 | 8.0 | 0.07 | 1.31 | 1.31 | 81 | 1009.7 |
| 20260903223036 | 63 | 333 | 3.0 | 8.0 | 0.16 | 1.30 | 1.30 | 81 | 1010.0 |
| 20260903221510 | 63 | 90 | 1.0 | 6.0 | 0.15 | 1.27 | 1.27 | 81 | 1009.0 |
| 20260903220019 | 62 | 301 | 1.0 | 10.0 | 0.57 | 1.27 | 1.27 | 80 | 1008.9 |
| 20260903214518 | 63 | 85 | 6.0 | 15.0 | 1.24 | 1.24 | 1.24 | 80 | 1009.0 |
| 20260903213034 | 64 | 306 | 6.0 | 17.0 | 1.14 | 1.14 | 1.14 | 79 | 1011.9 |
| 20260903211556 | 64 | 282 | 4.0 | 16.0 | 1.12 | 1.12 | 1.12 | 77 | 1010.8 |
| 20260903210010 | 65 | 297 | 9.0 | 25.0 | 0.70 | 0.70 | 0.70 | 68 | 1010.9 |
| 20260903204512 | 77 | 125 | 2.0 | 12.0 | 0.00 | 0.00 | 0.00 | 55 | 1009.4 |
| 20260903203020 | 78 | 55 | 7.0 | 19.0 | 0.00 | 0.00 | 0.00 | 54 | 1007.9 |
| 20260903201529 | 79 | 109 | 4.0 | 16.0 | 0.00 | 0.00 | 0.00 | 53 | 1007.6 |
| 20260903200031 | 79 | 109 | 8.0 | 19.0 | 0.00 | 0.00 | 0.00 | 53 | 1008.0 |
| 20260903194509 | 79 | 158 | 8.0 | 14.0 | 0.00 | 0.00 | 0.00 | 52 | 1008.4 |
| 20260903193015 | 80 | 65 | 4.0 | 16.0 | 0.00 | 0.00 | 0.00 | 51 | 1008.4 |
| 20260903191524 | 83 | 89 | 5.0 | 14.0 | 0.00 | 0.00 | 0.00 | 48 | 1008.9 |
| 20260903190030 | 82 | 119 | 5.0 | 13.0 | 0.00 | 0.00 | 0.00 | 48 | 1009.0 |
| 20260903184532 | 82 | 136 | 7.0 | 13.0 | 0.00 | 0.00 | 0.00 | 49 | 1009.6 |
| 20260903183012 | 79 | 129 | 4.0 | 9.0 | 0.00 | 0.00 | 0.00 | 51 | 1010.1 |
| 20260903181519 | 81 | 121 | 3.0 | 12.0 | 0.00 | 0.00 | 0.00 | 49 | 1010.1 |
| 20260903180027 | 80 | 99 | 3.0 | 11.0 | 0.00 | 0.00 | 0.00 | 50 | 1009.9 |
| 20260903174546 | 80 | 159 | 6.0 | 11.0 | 0.00 | 0.00 | 0.00 | 48 | 1009.7 |
| 20260903173031 | 78 | 108 | 4.0 | 16.0 | 0.00 | 0.00 | 0.00 | 51 | 1009.9 |
| 20260903171514 | 78 | 137 | 5.0 | 15.0 | 0.00 | 0.00 | 0.00 | 49 | 1010.0 |
| 20260903170024 | 77 | 136 | 5.0 | 12.0 | 0.00 | 0.00 | 0.00 | 50 | 1009.9 |
| 20260903164529 | 76 | 11 | 5.0 | 15.0 | 0.00 | 0.00 | 0.00 | 51 | 1010.1 |
| 20260903163029 | 77 | 38 | 4.0 | 16.0 | 0.00 | 0.00 | 0.00 | 48 | 1010.2 |
| 20260903161531 | 77 | 121 | 3.0 | 14.0 | 0.00 | 0.00 | 0.00 | 52 | 1010.5 |
| 20260903160018 | 75 | 90 | 5.0 | 15.0 | 0.00 | 0.00 | 0.00 | 50 | 1010.7 |
| 20260903154525 | 74 | 100 | 5.0 | 12.0 | 0.00 | 0.00 | 0.00 | 51 | 1010.8 |
| 20260903153031 | 72 | 86 | 6.0 | 13.0 | 0.00 | 0.00 | 0.00 | 55 | 1011.0 |
| 20260903151534 | 72 | 95 | 6.0 | 13.0 | 0.00 | 0.00 | 0.00 | 55 | 1011.2 |
| 20260903150032 | 71 | 5 | 3.0 | 12.0 | 0.00 | 0.00 | 0.00 | 58 | 1011.4 |
| 20260903144521 | 69 | 103 | 5.0 | 12.0 | 0.00 | 0.00 | 0.00 | 59 | 1011.4 |
| 20260903143026 | 68 | 84 | 4.0 | 12.0 | 0.00 | 0.00 | 0.00 | 60 | 1011.6 |
| 20260903141529 | 68 | 115 | 6.0 | 12.0 | 0.00 | 0.00 | 0.00 | 61 | 1011.7 |
| 20260903140032 | 67 | 81 | 4.0 | 10.0 | 0.00 | 0.00 | 0.00 | 62 | 1012.0 |
| 20260903134518 | 66 | 79 | 6.0 | 10.0 | 0.00 | 0.00 | 0.00 | 62 | 1012.2 |
| 20260903133023 | 64 | 94 | 5.0 | 10.0 | 0.00 | 0.00 | 0.00 | 64 | 1012.2 |
| 20260903131530 | 63 | 113 | 2.0 | 10.0 | 0.00 | 0.00 | 0.00 | 65 | 1012.2 |
| 20260903130029 | 62 | 169 | 3.0 | 10.0 | 0.00 | 0.00 | 0.00 | 67 | 1012.0 |
| 20260903124531 | 61 | 98 | 4.0 | 10.0 | 0.00 | 0.00 | 0.00 | 67 | 1012.0 |
| 20260903123020 | 61 | 88 | 4.0 | 11.0 | 0.00 | 0.00 | 0.00 | 68 | 1012.1 |
| 20260903121527 | 60 | 117 | 5.0 | 10.0 | 0.00 | 0.00 | 0.00 | 68 | 1012.2 |
| 20260903120030 | 60 | 113 | 5.0 | 9.0 | 0.00 | 0.00 | 0.00 | 68 | 1012.3 |
| 20260903114529 | 60 | 116 | 3.0 | 9.0 | 0.00 | 0.00 | 0.00 | 68 | 1012.5 |
| 20260903113033 | 60 | 94 | 3.0 | 8.0 | 0.00 | 0.00 | 0.00 | 68 | 1012.3 |
| 20260903111541 | 60 | 142 | 2.0 | 10.0 | 0.00 | 0.00 | 0.00 | 68 | 1012.5 |
| 20260903110030 | 60 | 161 | 4.0 | 9.0 | 0.00 | 0.00 | 0.00 | 69 | 1012.6 |
| 20260903104509 | 60 | 106 | 4.0 | 10.0 | 0.00 | 0.00 | 0.00 | 69 | 1012.5 |
| 20260903103015 | 60 | 88 | 4.0 | 8.0 | 0.00 | 0.00 | 0.00 | 69 | 1012.4 |
| 20260903101524 | 60 | 114 | 2.0 | 8.0 | 0.00 | 0.00 | 0.00 | 69 | 1012.5 |
| 20260903100028 | 60 | 130 | 4.0 | 8.0 | 0.00 | 0.00 | 0.00 | 69 | 1012.6 |
| 20260903094529 | 60 | 111 | 3.0 | 8.0 | 0.00 | 0.00 | 0.00 | 69 | 1012.6 |
| 20260903093025 | 60 | 121 | 3.0 | 7.0 | 0.00 | 0.00 | 0.00 | 69 | 1012.6 |
| 20260903091529 | 60 | 127 | 3.0 | 8.0 | 0.00 | 0.00 | 0.00 | 69 | 1012.6 |
| 20260903090024 | 60 | 122 | 2.0 | 6.0 | 0.00 | 0.00 | 0.00 | 69 | 1012.4 |
| 20260903084533 | 59 | 123 | 2.0 | 6.0 | 0.00 | 0.00 | 0.00 | 68 | 1012.6 |
| 20260903083029 | 60 | 122 | 2.0 | 6.0 | 0.00 | 0.00 | 0.00 | 68 | 1012.7 |
| 20260903081512 | 60 | 123 | 2.0 | 4.0 | 0.00 | 0.00 | 0.00 | 68 | 1012.8 |
| 20260903080019 | 60 | 121 | 2.0 | 6.0 | 0.00 | 0.00 | 0.00 | 68 | 1012.9 |
| 20260903074526 | 60 | 145 | 2.0 | 4.0 | 0.00 | 0.00 | 0.00 | 68 | 1012.9 |
| 20260903073040 | 60 | 145 | 1.0 | 5.0 | 0.00 | 0.00 | 0.00 | 67 | 1013.0 |
| 20260903071530 | 60 | 116 | 2.0 | 6.0 | 0.00 | 0.00 | 0.00 | 68 | 1013.0 |
| 20260903070016 | 60 | 123 | 0.0 | 4.0 | 0.00 | 0.00 | 0.00 | 68 | 1013.2 |
| 20260903064524 | 60 | 119 | 1.0 | 3.0 | 0.00 | 0.00 | 0.00 | 68 | 1013.3 |
| 20260903063030 | 59 | 117 | 0.0 | 4.0 | 0.00 | 0.00 | 0.00 | 68 | 1013.3 |
| 20260903061551 | 60 | 66 | 0.0 | 2.0 | 0.00 | 0.00 | 0.00 | 67 | 1013.4 |
| 20260903060034 | 60 | 66 | 0.0 | 2.0 | 0.00 | 0.00 | 0.00 | 66 | 1013.4 |
| 20260903054517 | 60 | 66 | 0.0 | 4.0 | 0.00 | 0.00 | 0.00 | 66 | 1013.3 |
| 20260903053023 | 60 | 66 | 0.0 | 2.0 | 0.00 | 0.00 | 0.00 | 66 | 1013.4 |
| 20260903051529 | 60 | 66 | 0.0 | 2.0 | 0.00 | 0.00 | 0.00 | 66 | 1013.6 |
| 20260903050032 | 60 | 66 | 1.0 | 4.0 | 0.00 | 0.00 | 0.00 | 67 | 1013.7 |
| 20260903044535 | 60 | 66 | 0.0 | 2.0 | 0.00 | 0.00 | 0.00 | 67 | 1013.8 |
| 20260903043023 | 60 | 66 | 0.0 | 3.0 | 0.00 | 0.00 | 0.00 | 67 | 1013.8 |
| 20260903041528 | 60 | 66 | 0.0 | 2.0 | 0.00 | 0.00 | 0.00 | 68 | 1013.9 |
| 20260903040032 | 59 | 66 | 0.0 | 2.0 | 0.00 | 0.00 | 0.00 | 68 | 1014.0 |
| 20260903034531 | 60 | 67 | 0.0 | 1.0 | 0.00 | 0.00 | 0.00 | 67 | 1014.0 |
| 20260903033033 | 60 | 67 | 0.0 | 1.0 | 0.00 | 0.00 | 0.00 | 67 | 1014.1 |
| 20260903031528 | 60 | 67 | 0.0 | 3.0 | 0.00 | 0.00 | 0.00 | 68 | 1014.1 |
| 20260903030055 | 61 | 67 | 0.0 | 2.0 | 0.00 | 0.00 | 0.00 | 68 | 1014.1 |
| 20260903024529 | 61 | 66 | 0.0 | 2.0 | 0.00 | 0.00 | 0.00 | 67 | 1013.9 |
| 20260903023032 | 62 | 66 | 0.0 | 0.0 | 0.00 | 0.00 | 0.00 | 67 | 1014.0 |
| 20260903021536 | 62 | 66 | 0.0 | 3.0 | 0.00 | 0.00 | 0.00 | 66 | 1013.9 |
| 20260903020024 | 62 | 67 | 0.0 | 2.0 | 0.00 | 0.00 | 0.00 | 66 | 1013.7 |